Zurück zum Katalog

TIANQI 28

AktivKommunikationLEO
NORAD 59912·PAYLOAD·🇨🇳 China

Gestartet May 29, 2024 von Yellow Sea Launch Area

Loading…

Nächste Überflüge (nächste 24 Stunden)

TLE

AktuellSource: Space-Track

Epoche: Sep 14, 2026, 11:01 UTC

1 59912U 24102D   26257.45971298 -.00000037  00000-0  62451-4 0  9995
2 59912  44.9776 224.4319 0013315 309.6300  50.3357 13.99190402117408

Verfolge TIANQI 28 in Echtzeit mit AllMySat

Download on the App Store